Location: Caltech
(34.1382°N, 118.1253°W)
Time: 17:02:40
(UTC-07:00)

Cosmos 1408 Rocket - Visible Passes

Search period start: 30 June 2015 00:00
Search period end: 10 July 2015 00:00
Orbit: 603 x 631 km, 82.6° (Epoch: 30 June)

Date Brightness Start Highest point End Pass type
(mag) Time Alt. Az. Time Alt. Az. Time Alt. Az.
30 Jun 7.3 04:48:39 10° ENE 04:49:06 10° ENE 04:49:51 10° E visible
01 Jul 6.5 05:02:56 10° NNE 05:06:06 20° ENE 05:09:22 10° ESE visible
05 Jul 6.4 04:31:55 10° NNE 04:35:01 19° ENE 04:38:15 10° ESE visible
06 Jul 5.2 04:47:50 10° NNE 04:51:54 36° E 04:55:56 10° SSE visible
07 Jul 3.8 05:04:13 10° N 05:08:38 73° E 05:12:58 10° SSE visible
09 Jul 6.3 04:00:52 10° NNE 04:03:57 19° ENE 04:07:07 10° ESE visible
